Timestamp,Temp,Chill,HIndex,Humid,Dewpt,Wind,HiWind,WindDir,Rain,RainRate,Barom,Solar,ET,UV,InsideTemp,InsideHumid
2015-07-25 00:00:00,53.5,53.5,53.5,82,48.1415640487001,7,13,315,0,0,29.569,0,0.001,0,73.6,41
2015-07-25 00:05:00,53.5,53.5,53.5,82,48.1415640487001,7,13,315,0,0,29.569,0,0,0,73.6,41
2015-07-25 00:10:00,53.4,53.4,53.4,82,48.043934489,7,12,315,0,0,29.568,0,0,0,73.6,41
2015-07-25 00:15:00,53.3,53.3,53.3,82,47.9463044111412,7,12,0,0,0,29.568,0,0,0,73.5,41
2015-07-25 00:20:00,53.3,53.3,53.3,82,47.9463044111412,7,11,315,0,0,29.568,0,0,0,73.5,41
2015-07-25 00:25:00,53.2,53.2,53.2,82,47.8486738151195,6,12,0,0,0,29.567,0,0,0,73.5,42
2015-07-25 00:30:00,53.2,53.2,53.2,82,47.8486738151195,7,13,315,0,0,29.567,0,0,0,73.5,42
2015-07-25 00:35:00,53.1,53.1,53.1,82,47.7510427009307,5,12,0,0,0,29.567,0,0,0,73.5,42
2015-07-25 00:40:00,53,53,53,82,47.6534110685708,6,10,337.5,0,0,29.567,0,0,0,73.5,42
2015-07-25 00:45:00,53,53,53,82,47.6534110685708,6,12,337.5,0,0,29.566,0,0,0,73.5,42
2015-07-25 00:50:00,52.9,52.9,52.9,82,47.5557789180357,5,9,0,0,0,29.565,0,0,0,73.5,42
2015-07-25 00:55:00,52.9,52.9,52.9,82,47.5557789180357,6,12,337.5,0,0,29.563,0,0,0,73.5,42
2015-07-25 01:00:00,52.8,52.8,52.8,82,47.4581462493211,6,11,337.5,0,0,29.563,0,0.001,0,73.3,42
2015-07-25 01:05:00,52.8,52.8,52.8,83,47.7807759232646,6,11,0,0,0,29.562,0,0,0,73.3,42
2015-07-25 01:10:00,52.8,52.8,52.8,83,47.7807759232646,6,9,292.5,0,0,29.561,0,0,0,73.3,42
2015-07-25 01:15:00,52.8,52.8,52.8,83,47.7807759232646,7,11,315,0,0,29.562,0,0,0,73.3,42
2015-07-25 01:20:00,52.7,52.7,52.7,82,47.360513062423,5,12,337.5,0,0,29.561,0,0,0,73.3,42
2015-07-25 01:25:00,52.7,52.7,52.7,82,47.360513062423,7,14,337.5,0,0,29.562,0,0,0,73.3,42
2015-07-25 01:30:00,52.6,52.6,52.6,82,47.2628793573373,7,11,337.5,0,0,29.56,0,0,0,73.3,42
2015-07-25 01:35:00,52.6,52.6,52.6,82,47.2628793573373,5,10,315,0,0,29.561,0,0,0,73.3,42
2015-07-25 01:40:00,52.5,52.5,52.5,82,47.1652451340598,8,13,315,0,0,29.561,0,0,0,73.3,42
2015-07-25 01:45:00,52.5,52.5,52.5,82,47.1652451340598,5,9,315,0,0,29.563,0,0,0,73.3,42
2015-07-25 01:50:00,52.4,52.4,52.4,82,47.0676103925864,4,8,337.5,0,0,29.564,0,0,0,73.3,42
2015-07-25 01:55:00,52.4,52.4,52.4,82,47.0676103925864,5,10,315,0,0,29.561,0,0,0,73.3,42
2015-07-25 02:00:00,52.3,52.3,52.3,82,46.9699751329129,5,11,0,0,0,29.561,0,0.001,0,73.3,42
2015-07-25 02:05:00,52.3,52.3,52.3,82,46.9699751329129,4,8,315,0,0,29.562,0,0,0,73.3,42
2015-07-25 02:10:00,52.3,52.3,52.3,82,46.9699751329129,5,11,315,0,0,29.56,0,0,0,73.3,42
2015-07-25 02:15:00,52.3,52.3,52.3,82,46.9699751329129,6,13,315,0,0,29.561,0,0,0,73.3,42
2015-07-25 02:20:00,52.3,52.3,52.3,82,46.9699751329129,5,11,337.5,0,0,29.557,0,0,0,73.3,42
2015-07-25 02:25:00,52.3,52.3,52.3,81,46.6445818391514,4,9,270,0,0,29.555,0,0,0,73.3,42
2015-07-25 02:30:00,52.3,52.3,52.3,81,46.6445818391514,4,8,292.5,0,0,29.558,0,0,0,73.3,42
2015-07-25 02:35:00,52.3,52.3,52.3,81,46.6445818391514,5,12,315,0,0,29.557,0,0,0,73.3,42
2015-07-25 02:40:00,52.3,52.3,52.3,81,46.6445818391514,7,12,337.5,0,0,29.556,0,0,0,73.1,42
2015-07-25 02:45:00,52.3,52.3,52.3,81,46.6445818391514,6,10,292.5,0,0,29.558,0,0,0,73.1,42
2015-07-25 02:50:00,52.3,52.3,52.3,81,46.6445818391514,5,10,315,0,0,29.557,0,0,0,73.1,42
2015-07-25 02:55:00,52.3,52.3,52.3,82,46.9699751329129,6,10,315,0,0,29.555,0,0,0,73.1,42
2015-07-25 03:00:00,52.3,52.3,52.3,82,46.9699751329129,6,9,315,0,0,29.557,0,0.001,0,73.1,42
2015-07-25 03:05:00,52.3,52.3,52.3,82,46.9699751329129,7,16,315,0,0,29.557,0,0,0,73.1,42
2015-07-25 03:10:00,52.3,52.3,52.3,82,46.9699751329129,7,13,315,0,0,29.559,0,0,0,73.1,42
2015-07-25 03:15:00,52.3,52.3,52.3,82,46.9699751329129,6,11,315,0,0,29.556,0,0,0,73.1,42
2015-07-25 03:20:00,52.2,52.2,52.2,82,46.8723393550354,4,11,337.5,0,0,29.561,0,0,0,73.1,42
2015-07-25 03:25:00,52.2,52.2,52.2,82,46.8723393550354,7,12,337.5,0,0,29.563,0,0,0,73.1,42
2015-07-25 03:30:00,52.1,52.1,52.1,82,46.7747030589495,7,14,315,0,0,29.563,0,0,0,73.1,42
2015-07-25 03:35:00,52.1,52.1,52.1,82,46.7747030589495,5,13,337.5,0,0,29.563,0,0,0,73.1,42
2015-07-25 03:40:00,52,52,52,82,46.6770662446512,7,13,337.5,0,0,29.558,0,0,0,73.1,42
2015-07-25 03:45:00,51.9,51.9,51.9,82,46.5794289121365,5,9,337.5,0,0,29.561,0,0,0,73.1,42
2015-07-25 03:50:00,51.8,51.8,51.8,82,46.481791061401,7,14,337.5,0,0,29.561,0,0,0,73.1,42
2015-07-25 03:55:00,51.8,51.8,51.8,82,46.481791061401,7,16,315,0,0,29.564,0,0,0,73,42
2015-07-25 04:00:00,51.7,51.7,51.7,82,46.3841526924408,4,8,337.5,0,0,29.566,0,0.001,0,73,42
2015-07-25 04:05:00,51.7,51.7,51.7,81,46.0596194432388,6,12,337.5,0,0,29.569,0,0,0,73.1,42
2015-07-25 04:10:00,51.6,51.6,51.6,81,45.9621237889033,5,10,292.5,0,0,29.57,0,0,0,73,42
2015-07-25 04:15:00,51.6,51.6,51.6,81,45.9621237889033,6,10,315,0,0,29.569,0,0,0,73,42
2015-07-25 04:20:00,51.5,51.5,51.5,81,45.864627585503,6,11,0,0,0,29.571,0,0,0,73,42
2015-07-25 04:25:00,51.5,51.5,51.5,81,45.864627585503,6,14,337.5,0,0,29.571,4,0,0,73,42
2015-07-25 04:30:00,51.5,51.5,51.5,81,45.864627585503,6,11,337.5,0,0,29.573,7,0,0,73,42
2015-07-25 04:35:00,51.5,51.5,51.5,81,45.864627585503,7,11,0,0,0,29.579,9,0,0,73,42
2015-07-25 04:40:00,51.5,51.5,51.5,81,45.864627585503,5,9,292.5,0,0,29.58,12,0,0,73,42
2015-07-25 04:45:00,51.5,51.5,51.5,81,45.864627585503,6,9,337.5,0,0,29.583,16,0,0,73,42
2015-07-25 04:50:00,51.5,51.5,51.5,81,45.864627585503,7,12,337.5,0,0,29.584,20,0,0,73,42
2015-07-25 04:55:00,51.5,51.5,51.5,81,45.864627585503,7,13,337.5,0,0,29.587,26,0,0,73,42
2015-07-25 05:00:00,51.5,51.5,51.5,81,45.864627585503,6,9,315,0,0,29.59,31,0.001,0,73.1,42
2015-07-25 05:05:00,51.5,51.5,51.5,81,45.864627585503,5,11,0,0,0,29.59,37,0,0,73.1,42
2015-07-25 05:10:00,51.5,51.5,51.5,81,45.864627585503,4,8,270,0,0,29.591,42,0,0,73.1,42
2015-07-25 05:15:00,51.6,51.6,51.6,81,45.9621237889033,5,10,315,0,0,29.594,48,0,0,73.1,42
2015-07-25 05:20:00,51.5,51.5,51.5,80,45.5368369742372,6,11,337.5,0,0,29.591,55,0,0,73,41
2015-07-25 05:25:00,51.5,51.5,51.5,80,45.5368369742372,6,11,315,0,0,29.594,64,0,0,73,41
2015-07-25 05:30:00,51.6,51.6,51.6,80,45.6341885173577,7,15,315,0,0,29.595,73,0,0,73,41
2015-07-25 05:35:00,51.7,51.7,51.7,79,45.3998286057889,6,11,315,0,0,29.595,81,0,0,72.8,41
2015-07-25 05:40:00,51.8,51.8,51.8,79,45.4970327738489,6,10,315,0,0,29.598,89,0,0,72.8,41
2015-07-25 05:45:00,51.8,51.8,51.8,78,45.1614559479595,6,12,337.5,0,0,29.599,95,0,0,72.8,41
2015-07-25 05:50:00,51.9,51.9,51.9,78,45.2585117310223,5,10,315,0,0,29.599,100,0,0,72.6,41
2015-07-25 05:55:00,51.9,51.9,51.9,78,45.2585117310223,8,12,0,0,0,29.599,107,0,0,72.6,41
2015-07-25 06:00:00,52,52,52,77,45.0158810133705,7,12,337.5,0,0,29.6,116,0.002,0,72.6,41
2015-07-25 06:05:00,52.1,52.1,52.1,77,45.1127861096426,7,13,337.5,0,0,29.602,130,0,0.3,72.6,40
2015-07-25 06:10:00,52.2,52.2,52.2,77,45.2096905310749,8,14,315,0,0,29.601,145,0,0.5,72.6,40
2015-07-25 06:15:00,52.3,52.3,52.3,77,45.3065942776746,8,15,337.5,0,0,29.6,158,0,0.5,72.4,40
2015-07-25 06:20:00,52.5,52.5,52.5,76,45.1560510167569,7,14,337.5,0,0,29.598,182,0,0.6,72.4,40
2015-07-25 06:25:00,52.7,52.7,52.7,76,45.3495514286517,6,12,315,0,0,29.6,194,0,0.6,72.4,40
2015-07-25 06:30:00,52.9,52.9,52.9,76,45.5430490129889,10,19,315,0,0,29.602,209,0,0.7,72.4,40
2015-07-25 06:35:00,53.1,53.1,53.1,75,45.3872642956102,9,18,315,0,0,29.603,221,0,0.7,72.4,40
2015-07-25 06:40:00,53.3,53.3,53.3,75,45.5804501953812,8,14,337.5,0,0,29.604,226,0,0.8,72.4,40
2015-07-25 06:45:00,53.5,53.5,53.5,75,45.7736331383524,9,19,315,0,0,29.605,232,0,0.8,72.4,40
2015-07-25 06:50:00,53.8,53.8,53.8,75,46.0634020089581,8,19,337.5,0,0,29.607,226,0,0.8,72.3,40
2015-07-25 06:55:00,54,54,54,75,46.2565775602268,5,12,337.5,0,0,29.612,215,0,0.9,72.1,40
2015-07-25 07:00:00,54.2,54.2,54.2,75,46.4497501549333,5,13,0,0,0,29.611,242,0.005,1,71.8,40
2015-07-25 07:05:00,54.5,54.5,54.5,74,46.3839302979778,8,14,292.5,0,0,29.613,257,0,1.1,71.6,40
2015-07-25 07:10:00,54.6,54.6,54.6,74,46.4803581301376,9,19,0,0,0,29.615,311,0,1.2,71.6,41
2015-07-25 07:15:00,54.9,54.9,54.9,74,46.7696369963842,8,18,0,0,0,29.617,337,0,1.3,71.2,41
2015-07-25 07:20:00,55.1,55.1,55.1,73,46.6017154797007,9,16,337.5,0,0,29.619,354,0,1.4,71.1,41
2015-07-25 07:25:00,55.5,55.5,55.5,73,46.9867751955611,7,18,337.5,0,0,29.62,370,0,1.5,70.9,41
2015-07-25 07:30:00,56,56,56,72,47.1015040055107,7,16,0,0,0,29.619,380,0,1.5,70.9,41
2015-07-25 07:35:00,56,56,56,72,47.1015040055107,9,18,337.5,0,0,29.617,384,0,1.6,70.9,41
2015-07-25 07:40:00,56,56,56,71,46.730417633566,11,19,315,0,0,29.621,409,0,1.7,70.9,42
2015-07-25 07:45:00,55.9,55.9,55.9,72,47.0054034126412,11,22,337.5,0,0,29.625,421,0,1.8,70.9,42
2015-07-25 07:50:00,56.5,56.5,56.5,71,47.2101028830614,8,15,337.5,0,0,29.625,442,0,1.9,70.9,42
2015-07-25 07:55:00,56.8,56.8,56.8,71,47.4979035799211,9,21,315,0,0,29.622,451,0,2,70.9,42
2015-07-25 08:00:00,57.2,57.2,57.2,69,47.1215037557652,8,18,337.5,0,0,29.626,466,0.009,2.1,71.1,42
2015-07-25 08:05:00,57.2,57.2,57.2,70,47.503953731919,9,21,0,0,0,29.626,493,0,2.2,71.1,42
2015-07-25 08:10:00,57.3,57.3,57.3,69,47.2171036941685,10,18,315,0,0,29.629,504,0,2.3,70.9,42
2015-07-25 08:15:00,57.6,57.6,57.6,69,47.5038978767042,8,20,315,0,0,29.633,531,0,2.2,71.1,42
2015-07-25 08:20:00,57.5,57.5,57.5,68,47.0204395949048,10,15,315,0,0,29.631,533,0,2.5,71.1,42
2015-07-25 08:25:00,58.2,58.2,58.2,68,47.6884283317802,6,13,337.5,0,0,29.632,596,0,2.7,71.2,42
2015-07-25 08:30:00,59,59,59,65,47.249581477952,6,14,337.5,0,0,29.634,639,0,2.6,71.2,42
2015-07-25 08:35:00,58.3,58.3,58.3,65,46.5852541870406,9,18,337.5,0,0,29.638,338,0,2.2,71.2,42
2015-07-25 08:40:00,58.4,58.4,58.4,66,47.0851806789813,7,14,315,0,0,29.637,605,0,2.8,71.2,41
2015-07-25 08:45:00,59,59,59,64,46.8379831092376,7,16,315,0,0,29.638,621,0,3,71.2,41
2015-07-25 08:50:00,59,59,59,63,46.4206846870784,8,16,315,0,0,29.638,523,0,3,71.2,41
2015-07-25 08:55:00,59,59,59,62,45.9975141315313,8,16,315,0,0,29.639,590,0,3.2,71.4,41
2015-07-25 09:00:00,59.3,59.3,59.3,61,45.8508297746674,7,14,315,0,0,29.638,621,0.013,3.2,71.4,41
2015-07-25 09:05:00,60,60,60,60,46.0727204333027,6,11,315,0,0,29.638,622,0,3.2,71.4,41
2015-07-25 09:10:00,60,60,60,60,46.0727204333027,7,14,315,0,0,29.639,636,0,3.2,71.6,41
2015-07-25 09:15:00,59.6,59.6,59.6,61,46.1333572664122,8,14,337.5,0,0,29.639,622,0,3.6,71.6,41
2015-07-25 09:20:00,60.2,60.2,60.2,59,45.816518885765,7,15,337.5,0,0,29.64,636,0,3.7,71.6,40
2015-07-25 09:25:00,60.3,60.3,60.3,59,45.9103099909239,8,16,315,0,0,29.643,650,0,3.8,71.6,40
2015-07-25 09:30:00,60.9,60.9,60.9,59,46.4730293816981,9,16,315,0,0,29.644,680,0,4,71.6,40
2015-07-25 09:35:00,60.5,60.5,60.5,58,45.6464705430699,9,13,337.5,0,0,29.647,706,0,3.4,71.8,40
2015-07-25 09:40:00,60.6,60.6,60.6,58,45.7400662449188,9,21,315,0,0,29.647,701,0,4.2,71.8,40
2015-07-25 09:45:00,61.8,61.8,61.8,57,46.4022588882011,6,14,292.5,0,0,29.648,704,0,4.3,71.8,40
2015-07-25 09:50:00,61.6,61.6,61.6,55,45.272817054653,8,12,337.5,0,0,29.649,755,0,4.5,71.8,39
2015-07-25 09:55:00,62.1,62.1,62.1,56,46.2137880750233,7,14,0,0,0,29.651,792,0,4.4,71.8,39
2015-07-25 10:00:00,63.1,63.1,63.1,55,46.6674917460338,6,10,292.5,0,0,29.65,612,0.016,3.5,71.9,39
2015-07-25 10:05:00,61.8,61.8,61.8,56,45.9342341718064,8,20,337.5,0,0,29.653,135,0,3.4,71.9,39
2015-07-25 10:10:00,62,62,62,57,46.58902473333,7,14,315,0,0,29.652,746,0,4.6,71.9,39
2015-07-25 10:15:00,62.3,62.3,62.3,55,45.9237058649984,7,13,315,0,0,29.652,805,0,4.9,71.9,39
2015-07-25 10:20:00,62.7,62.7,62.7,55,46.2956104105299,9,14,337.5,0,0,29.654,678,0,4.6,72.1,39
2015-07-25 10:25:00,63,63,63,55,46.5745235879791,7,14,315,0,0,29.652,787,0,5,72.1,38
2015-07-25 10:30:00,63.4,63.4,63.4,54,46.4600115321255,7,14,0,0,0,29.658,866,0,5.3,72.1,39
2015-07-25 10:35:00,62.3,62.3,62.3,54,45.4395726725318,9,14,0,0,0,29.658,314,0,3.3,71.8,38
2015-07-25 10:40:00,62.3,62.3,62.3,56,46.4001502854879,6,12,337.5,0,0,29.658,278,0,3.2,71.9,38
2015-07-25 10:45:00,62.2,62.2,62.2,56,46.3069698860689,7,16,337.5,0,0,29.659,363,0,3.1,71.9,39
2015-07-25 10:50:00,61.8,61.8,61.8,55,45.4587925406721,7,12,0,0,0,29.657,295,0,2.3,72.1,39
2015-07-25 10:55:00,62,62,62,56,46.1206048523191,6,13,0,0,0,29.659,310,0,2.4,72.3,38
2015-07-25 11:00:00,61.7,61.7,61.7,56,45.8410467139338,6,15,337.5,0,0,29.659,292,0.014,2.1,72.4,38
2015-07-25 11:05:00,61.9,61.9,61.9,57,46.4956424972574,4,9,270,0,0,29.661,243,0,1.8,72.6,38
2015-07-25 11:10:00,62.2,62.2,62.2,56,46.3069698860689,5,11,337.5,0,0,29.663,255,0,1.9,72.8,38
2015-07-25 11:15:00,61.5,61.5,61.5,56,45.6546675627956,8,12,315,0,0,29.665,306,0,2.3,73,38
2015-07-25 11:20:00,61.7,61.7,61.7,56,45.8410467139338,5,9,0,0,0,29.665,312,0,2.3,73.1,38
2015-07-25 11:25:00,61.7,61.7,61.7,56,45.8410467139338,6,11,337.5,0,0,29.666,270,0,2,73.1,37
2015-07-25 11:30:00,61.4,61.4,61.4,56,45.5614758694658,5,11,315,0,0,29.664,251,0,1.9,73.1,38
2015-07-25 11:35:00,61.6,61.6,61.6,56,45.7478578442742,4,9,0,0,0,29.667,246,0,1.9,73.3,37
2015-07-25 11:40:00,61.6,61.6,61.6,56,45.7478578442742,4,8,337.5,0,0,29.666,233,0,1.7,73.3,37
2015-07-25 11:45:00,61.6,61.6,61.6,56,45.7478578442742,4,9,0,0,0,29.67,214,0,1.6,73.3,37
2015-07-25 11:50:00,61.8,61.8,61.8,56,45.9342341718064,4,11,337.5,0,0,29.671,264,0,1.9,73.1,37
2015-07-25 11:55:00,61.7,61.7,61.7,57,46.3088739061308,6,12,0,0,0,29.674,142,0,0.8,73.1,37
2015-07-25 12:00:00,61.1,61.1,61.1,57,45.7485351787211,6,12,315,0,0,29.673,192,0.007,1.3,73,37
2015-07-25 12:05:00,60.9,60.9,60.9,58,46.0208453403408,6,9,0,0,0,29.674,189,0,1.6,73,37
2015-07-25 12:10:00,60.9,60.9,60.9,57,45.5617446174336,7,10,315,0,0,29.676,185,0,1.7,73,38
2015-07-25 12:15:00,61,61,61,57,45.6551405847054,5,10,315,0,0,29.676,168,0,1.3,73.1,38
2015-07-25 12:20:00,60.9,60.9,60.9,58,46.0208453403408,5,9,0,0,0,29.676,184,0,1.4,73.3,37
2015-07-25 12:25:00,61.1,61.1,61.1,57,45.7485351787211,5,8,0,0,0,29.674,257,0,2.2,73.5,37
2015-07-25 12:30:00,62.3,62.3,62.3,56,46.4001502854879,1,7,315,0,0,29.675,347,0,2.9,73.6,37
2015-07-25 12:35:00,62.4,62.4,62.4,55,46.0166841774402,5,10,315,0,0,29.676,251,0,1.8,73.6,37
2015-07-25 12:40:00,62.3,62.3,62.3,56,46.4001502854879,4,9,0,0,0,29.676,157,0,0.9,73.6,37
2015-07-25 12:45:00,62.1,62.1,62.1,56,46.2137880750233,4,10,0,0,0,29.676,132,0,0.7,73.6,37
2015-07-25 12:50:00,61.9,61.9,61.9,57,46.4956424972574,5,8,337.5,0,0,29.675,243,0,1.9,73.6,37
2015-07-25 12:55:00,63.2,63.2,63.2,55,46.7604584535976,5,10,0,0,0,29.677,1132,0,5.1,73.6,37
2015-07-25 13:00:00,63.9,63.9,63.9,54,46.9237877751366,5,8,0,0,0,29.677,337,0.008,2.6,73.5,37
2015-07-25 13:05:00,63,63,63,54,46.0889637182081,7,12,315,0,0,29.677,278,0,2.2,73.6,37
2015-07-25 13:10:00,63.1,63.1,63.1,54,46.1817279067901,4,8,292.5,0,0,29.679,245,0,1.9,73.8,37
2015-07-25 13:15:00,62.8,62.8,62.8,55,46.3885829202611,4,8,315,0,0,29.678,285,0,3.3,73.8,37
2015-07-25 13:20:00,63.1,63.1,63.1,54,46.1817279067901,5,9,0,0,0,29.678,595,0,3.8,74,37
2015-07-25 13:25:00,63.4,63.4,63.4,54,46.4600115321255,2,7,337.5,0,0,29.677,310,0,2.8,74,37
2015-07-25 13:30:00,63.8,63.8,63.8,53,46.3358359867572,3,7,337.5,0,0,29.678,263,0,2.6,74,37
2015-07-25 13:35:00,63.9,63.9,63.9,54,46.9237877751366,2,8,0,0,0,29.679,258,0,1.9,74.2,37
2015-07-25 13:40:00,64.4,64.4,64.4,53,46.8910821733964,2,7,315,0,0,29.679,604,0,3.5,74.2,37
2015-07-25 13:45:00,64.4,64.4,64.4,53,46.8910821733964,4,9,315,0,0,29.679,255,0,2.4,74.2,37
2015-07-25 13:50:00,64,64,64,54,47.0165385541797,2,6,337.5,0,0,29.68,208,0,1.5,74.2,37
2015-07-25 13:55:00,63.5,63.5,63.5,54,46.5527697605534,1,5,45,0,0,29.679,136,0,0.8,74.2,37
2015-07-25 14:00:00,63,63,63,55,46.5745235879791,3,7,0,0,0,29.678,96,0.009,0,74.2,37
2015-07-25 14:05:00,62.5,62.5,62.5,55,46.1096610391534,5,8,315,0,0,29.682,78,0,0,74,37
2015-07-25 14:10:00,62.4,62.4,62.4,56,46.4933292733125,3,8,315,0,0,29.683,87,0,0,73.8,37
2015-07-25 14:15:00,62.3,62.3,62.3,54,45.4395726725318,4,8,337.5,0,0,29.682,86,0,0,73.8,37
2015-07-25 14:20:00,62.2,62.2,62.2,54,45.3467965619182,5,10,315,0,0,29.684,68,0,0,73.6,37
2015-07-25 14:25:00,62.1,62.1,62.1,55,45.7377448877932,2,8,315,0,0,29.685,48,0,0,73.6,37
2015-07-25 14:30:00,61.9,61.9,61.9,55,45.5517781072661,3,7,292.5,0,0,29.687,39,0,0,73.5,37
2015-07-25 14:35:00,61.7,61.7,61.7,55,45.3658055231457,5,8,315,0,0,29.689,42,0,0,73.5,37
2015-07-25 14:40:00,61.6,61.6,61.6,56,45.7478578442742,3,7,0,0,0,29.688,65,0,0,73.3,37
2015-07-25 14:45:00,61.6,61.6,61.6,58,46.6759498409296,4,10,0,0,0,29.693,205,0,0.8,73.3,37
2015-07-25 14:50:00,62.6,62.6,62.6,59,48.0671474378754,5,11,0,0,0,29.69,548,0,2.5,73.5,37
2015-07-25 14:55:00,63.2,63.2,63.2,55,46.7604584535976,6,12,315,0,0,29.692,295,0,2.2,73.6,37
2015-07-25 15:00:00,63.2,63.2,63.2,53,45.7805347240731,4,12,247.5,0,0,29.692,230,0.005,1.8,73.6,37
2015-07-25 15:05:00,63.1,63.1,63.1,55,46.6674917460338,3,10,270,0,0,29.693,238,0,1.6,73.8,37
2015-07-25 15:10:00,63,63,63,56,47.0523735585717,4,15,225,0,0,29.691,255,0,1.5,73.8,37
2015-07-25 15:15:00,63.2,63.2,63.2,58,48.1730859775433,3,11,225,0,0,29.692,263,0,1.5,74,37
2015-07-25 15:20:00,63.8,63.8,63.8,58,48.7344239588623,5,12,225,0,0,29.691,405,0,2.6,74,37
2015-07-25 15:25:00,64.3,64.3,64.3,55,47.7829965141047,4,13,202.5,0,0,29.692,337,0,2.1,74,37
2015-07-25 15:30:00,64.3,64.3,64.3,55,47.7829965141047,5,11,292.5,0,0,29.693,491,0,2.6,74,37
2015-07-25 15:35:00,63.9,63.9,63.9,55,47.4111847956489,6,16,247.5,0,0,29.692,339,0,2.4,74.2,37
2015-07-25 15:40:00,64.2,64.2,64.2,56,48.1703097080594,5,14,247.5,0,0,29.69,313,0,2.8,74.2,37
2015-07-25 15:45:00,64.5,64.5,64.5,57,48.9231345040116,7,14,247.5,0,0,29.69,605,0,2.8,74.2,37
2015-07-25 15:50:00,64.9,64.9,64.9,57,49.2965124676271,6,14,247.5,0,0,29.689,583,0,2.5,74,38
2015-07-25 15:55:00,64.9,64.9,64.9,55,48.3406705899573,5,12,225,0,0,29.692,551,0,2.3,74,38
2015-07-25 16:00:00,65,65,65,55,48.4336111944878,7,14,270,0,0,29.693,606,0.011,2.5,74,38
2015-07-25 16:05:00,65.5,65.5,65.5,54,48.4076214876114,6,13,270,0,0,29.69,614,0,2.1,74,38
2015-07-25 16:10:00,65.7,65.7,65.7,54,48.5930738924987,5,12,292.5,0,0,29.691,227,0,1.5,74,38
2015-07-25 16:15:00,65.1,65.1,65.1,54,48.0366988067778,7,14,270,0,0,29.691,240,0,1.4,74,38
2015-07-25 16:20:00,65.4,65.4,65.4,54,48.3148930513392,3,10,247.5,0,0,29.693,512,0,1.6,73.8,38
2015-07-25 16:25:00,65,65,65,52,46.9402488012478,5,12,315,0,0,29.69,200,0,1.1,73.8,38
2015-07-25 16:30:00,64,64,64,54,47.0165385541797,7,14,247.5,0,0,29.691,169,0,0.9,73.8,38
2015-07-25 16:35:00,63.8,63.8,63.8,56,47.797686903396,6,16,270,0,0,29.692,552,0,1.4,73.8,38
2015-07-25 16:40:00,64.4,64.4,64.4,53,46.8910821733964,7,18,337.5,0,0,29.694,550,0,1.5,73.8,38
2015-07-25 16:45:00,64.2,64.2,64.2,53,46.7060062302381,7,16,315,0,0,29.691,481,0,1.4,73.8,38
2015-07-25 16:50:00,64.5,64.5,64.5,54,47.4802701035741,6,13,315,0,0,29.692,451,0,1.4,73.6,37
2015-07-25 16:55:00,64.8,64.8,64.8,54,47.7584911578457,6,14,225,0,0,29.694,427,0,1.2,73.6,38
2015-07-25 17:00:00,64.1,64.1,64.1,54,47.1092878434536,8,16,270,0,0,29.695,421,0.011,1.1,73.6,38
2015-07-25 17:05:00,64,64,64,53,46.5209241681262,6,14,292.5,0,0,29.695,413,0,1.1,73.6,38
2015-07-25 17:10:00,64,64,64,53,46.5209241681262,7,15,270,0,0,29.698,399,0,1,73.6,38
2015-07-25 17:15:00,63.6,63.6,63.6,53,46.1507416858277,8,14,292.5,0,0,29.698,405,0,0.8,73.8,38
2015-07-25 17:20:00,63.6,63.6,63.6,53,46.1507416858277,6,14,292.5,0,0,29.699,389,0,0.8,73.8,37
2015-07-25 17:25:00,63.6,63.6,63.6,53,46.1507416858277,6,14,225,0,0,29.696,369,0,0.7,74,37
2015-07-25 17:30:00,63.4,63.4,63.4,49,43.9022223659008,7,13,270,0,0,29.7,369,0,0.6,74,37
2015-07-25 17:35:00,63.1,63.1,63.1,48,43.0888278932189,7,18,270,0,0,29.702,359,0,0.6,74.2,37
2015-07-25 17:40:00,63.1,63.1,63.1,48,43.0888278932189,6,12,292.5,0,0,29.7,334,0,0.2,74.2,37
2015-07-25 17:45:00,62.9,62.9,62.9,49,43.4437547413169,8,19,292.5,0,0,29.7,321,0,0.1,74.3,37
2015-07-25 17:50:00,62.5,62.5,62.5,49,43.0769501244155,7,16,270,0,0,29.702,304,0,0,74.3,36
2015-07-25 17:55:00,62.5,62.5,62.5,49,43.0769501244155,5,13,247.5,0,0,29.705,285,0,0,74.3,36
2015-07-25 18:00:00,62.3,62.3,62.3,49,42.8935376425188,7,15,270,0,0,29.702,266,0.01,0,74.3,36
2015-07-25 18:05:00,62.2,62.2,62.2,50,43.3285690050953,6,20,247.5,0,0,29.703,244,0,0,74.5,36
2015-07-25 18:10:00,61.8,61.8,61.8,51,43.4775069935084,6,13,270,0,0,29.702,228,0,0,74.5,36
2015-07-25 18:15:00,61.7,61.7,61.7,53,44.3920405558823,5,12,270,0,0,29.703,216,0,0,74.5,36
2015-07-25 18:20:00,61.6,61.6,61.6,53,44.2994620339234,5,15,247.5,0,0,29.705,201,0,0,74.5,36
2015-07-25 18:25:00,61.3,61.3,61.3,54,44.5117444933866,7,19,270,0,0,29.709,187,0,0,74.7,36
2015-07-25 18:30:00,61.1,61.1,61.1,54,44.3261609698413,5,11,292.5,0,0,29.709,173,0,0,74.7,36
2015-07-25 18:35:00,61.1,61.1,61.1,53,43.8365464624942,4,13,292.5,0,0,29.713,159,0,0,74.7,36
2015-07-25 18:40:00,60.8,60.8,60.8,53,43.558778748962,6,14,270,0,0,29.712,145,0,0,74.9,36
2015-07-25 18:45:00,60.4,60.4,60.4,54,43.67657167501,5,11,315,0,0,29.709,130,0,0,74.9,36
2015-07-25 18:50:00,60.3,60.3,60.3,55,44.0638349108619,6,12,270,0,0,29.712,118,0,0,75,35
2015-07-25 18:55:00,60.1,60.1,60.1,56,44.349855363126,6,15,247.5,0,0,29.714,106,0,0,75,35
2015-07-25 19:00:00,59.9,59.9,59.9,56,44.1634310255636,4,13,270,0,0,29.717,93,0.006,0,75.2,35
2015-07-25 19:05:00,59.6,59.6,59.6,57,44.3474720628021,4,12,270,0,0,29.718,70,0,0,75.2,35
2015-07-25 19:10:00,59.2,59.2,59.2,58,44.4296049174108,4,9,292.5,0,0,29.717,42,0,0,75.2,35
2015-07-25 19:15:00,59,59,59,59,44.6909244327539,3,10,270,0,0,29.717,34,0,0,75.2,35
2015-07-25 19:20:00,59,59,59,60,45.1328273572155,5,13,270,0,0,29.717,27,0,0,75.2,35
2015-07-25 19:25:00,59,59,59,60,45.1328273572155,4,10,270,0,0,29.714,38,0,0,75.2,35
2015-07-25 19:30:00,58.7,58.7,58.7,61,45.2857417757105,4,11,292.5,0,0,29.715,36,0,0,75.2,35
2015-07-25 19:35:00,58.4,58.4,58.4,62,45.4313053217034,5,11,270,0,0,29.713,24,0,0,75,35
2015-07-25 19:40:00,58.1,58.1,58.1,63,45.569729427303,6,13,270,0,0,29.715,19,0,0,75,35
2015-07-25 19:45:00,57.9,57.9,57.9,64,45.7959527775197,5,11,270,0,0,29.711,16,0,0,75,36
2015-07-25 19:50:00,57.7,57.7,57.7,65,46.0157887503916,3,9,225,0,0,29.713,13,0,0,74.9,36
2015-07-25 19:55:00,57.5,57.5,57.5,65,45.8259583129402,3,12,225,0,0,29.714,12,0,0,74.9,36
2015-07-25 20:00:00,57.3,57.3,57.3,66,46.0392332678094,2,6,0,0,0,29.713,10,0.002,0,74.7,36
2015-07-25 20:05:00,57.1,57.1,57.1,66,45.8490474543418,3,8,292.5,0,0,29.714,8,0,0,74.7,36
2015-07-25 20:10:00,56.9,56.9,56.9,67,46.0559406015578,1,5,247.5,0,0,29.717,6,0,0,74.5,36
2015-07-25 20:15:00,56.7,56.7,56.7,67,45.8654042596023,2,6,270,0,0,29.719,4,0,0,74.5,36
2015-07-25 20:20:00,56.5,56.5,56.5,67,45.6748638858115,1,7,247.5,0,0,29.718,0,0,0,74.3,36
2015-07-25 20:25:00,56.3,56.3,56.3,68,45.875205105714,2,8,292.5,0,0,29.717,0,0,0,74.3,37
2015-07-25 20:30:00,56.1,56.1,56.1,68,45.6843190651473,2,8,292.5,0,0,29.715,0,0,0,74.2,37
2015-07-25 20:35:00,55.9,55.9,55.9,69,45.8786191205005,3,7,292.5,0,0,29.714,0,0,0,74.2,37
2015-07-25 20:40:00,55.8,55.8,55.8,70,46.1631473183494,3,7,0,0,0,29.712,0,0,0,74.2,37
2015-07-25 20:45:00,55.7,55.7,55.7,70,46.0673686452055,1,5,292.5,0,0,29.717,0,0,0,74,37
2015-07-25 20:50:00,55.5,55.5,55.5,70,45.8758085841157,0,3,0,0,0,29.72,0,0,0,74,37
2015-07-25 20:55:00,55.5,55.5,55.5,71,46.2507106060405,1,6,112.5,0,0,29.722,0,0,0,73.8,37
2015-07-25 21:00:00,55.4,55.4,55.4,71,46.1547665870412,2,8,315,0,0,29.723,0,0.001,0,73.8,37
2015-07-25 21:05:00,55.1,55.1,55.1,72,46.2365685129435,0,1,0,0,0,29.721,0,0,0,73.8,37
2015-07-25 21:10:00,54.9,54.9,54.9,72,46.0443514107448,0,3,0,0,0,29.72,0,0,0,73.8,37
2015-07-25 21:15:00,54.7,54.7,54.7,73,46.2166428908169,1,3,292.5,0,0,29.719,0,0,0,73.6,38
2015-07-25 21:20:00,54.5,54.5,54.5,74,46.3839302979778,1,4,292.5,0,0,29.72,0,0,0,73.6,38
2015-07-25 21:25:00,54.3,54.3,54.3,74,46.1910723184859,0,5,0,0,0,29.721,0,0,0,73.6,38
2015-07-25 21:30:00,54.2,54.2,54.2,75,46.4497501549333,0,1,0,0,0,29.72,0,0,0,73.6,38
2015-07-25 21:35:00,54.2,54.2,54.2,75,46.4497501549333,1,4,292.5,0,0,29.718,0,0,0,73.6,38
2015-07-25 21:40:00,54,54,54,75,46.2565775602268,1,6,292.5,0,0,29.719,0,0,0,73.6,38
2015-07-25 21:45:00,53.9,53.9,53.9,75,46.159990154167,1,5,270,0,0,29.721,0,0,0,73.5,38
2015-07-25 21:50:00,53.9,53.9,53.9,76,46.510494523479,0,2,0,0,0,29.721,0,0,0,73.5,38
2015-07-25 21:55:00,53.8,53.8,53.8,76,46.4137531531418,0,4,0,0,0,29.721,0,0,0,73.5,38